www.pogodaiklimat.ru

Погода и климат >> Архив погоды >> Мексика >> Tlaxcala Airport


ПОГОДА в Tlaxcala Airport

  • Прогноз погоды в Tlaxcala Airport
  • Монитор погоды в Tlaxcala Airport
  • Климат города

АРХИВ ПОГОДЫ в Tlaxcala Airport

Время (UTC), дата Ветер
(напр.,м/с)
 
Видим.   Явления Облачность Т
(С)
Тd
(С)
f
(%)
Тe
(С)
Тes
(С)
Комфортность P
(гПа)
Po
(гПа)
Тmin
(С)
Tmax
(С)
R
(мм)
R24
(мм)
S
(см)
18 17.09 С 1 10 км мгла {туман} 9/6 1020 м
[Cb calv Ac trans Cs]
+22.2 +11.8 52 +25 +30 комфорт 1015.4 783.7 +12.4 +22.7
21 17.09 ЮВ 3 10 км мгла {туман} 5/4 1200 м
[Cu med, cong Ci]
+24.5 +9.5 39 +25 +31 комфорт 1010.3 781.4
00 18.09 В 2 10 км слабая морось {гроза} 8/5 600 м
[Cb cap Ac As]
+18.6 +13.1 70 +20 +20 1008.7 781.7 0.0
03 18.09 С 4 6000 м слабая морось {дождь} 10/6 1000 м
[Cb cap Ac As]
+14.6 +13.0 90 +13 +13 1012.2 784.5 7
06 18.09 штиль 0 6000 м в посл. час морось {дождь} 6/3 600 м
[Frnb Ac As]
+14.4 +12.4 88 +14 +14 1013.6 784.4 8
12 18.09 С 1 8000 м мгла 4/0
[Ac trans]
+13.6 +12.1 91 +14 +14 1015.9 783.3 +13.2 +25.6
15 18.09 ЮВ 1 18 км 4/1 840 м
[Cu hum Ac trans Cc]
+17.6 +11.8 69 +19 +25 1017.3 784.5
18 18.09 В 2 15 км 8/3 1140 м
[Cb calv Ac trans Ci]
+22.7 +8.8 41 +24 +33 комфорт 1015.3 784.1 +13.1 +23.4
21 18.09 В 5 15 км гроза без осадков {туман} 6/4 1200 м
[Cb cap Ac As]
+23.1 +6.8 35 +24 +27 комфорт 1009.6 781.3
00 19.09 ЮЗ 1 12 км слабая морось 9/5 600 м
[Cb cap Ac As]
+17.6 +9.9 61 +19 +19 1009.0 781.7 0.1
03 19.09 С 1 12 км в посл. час морось 5/0 2000 м
[Ac trans]
+15.8 +12.2 79 +16 +16 1011.1 783.5 0.6
06 19.09 СВ 1 12 км {морось} 1/0
[As trans]
+14.2 +11.9 86 +15 +15 1012.9 783.8 0.6
15 19.09 В 1 12 км дым {туман} 4/1 900 м
[Cu hum Cs]
+17.9 +8.2 53 +19 +26 1017.2 784.2
18 19.09 В 2 18 км 5/3 1170 м
[Cb calv Cs]
+23.6 +9.4 40 +24 +37 комфорт 1014.9 783.7 +11.9 +24.1
21 19.09 ЮВ 2 18 км 4/3 1350 м
[Cu hum Ci]
+26.4 +7.7 31 +26 +35 жарко 1008.5 780.7
00 20.09 СВ 3 18 км слабый ливневой дождь 8/5 600 м
[Cb cap Ac As Ci sp]
+21.3 +12.3 56 +23 +24 комфорт 1006.4 780.9 0.1
06 20.09 СЗ 1 12 км {дождь} 4/0
[Ac trans]
+15.6 +13.0 85 +16 +16 1011.1 783.5 9
15 20.09 СВ 3 18 км 3/1 660 м
[Cu hum Cs]
+17.7 +9.6 59 +18 +23 1016.1 784.0
18 20.09 В 2 20 км 4/3 1200 м
[Cb calv Cs]
+24.1 +8.9 38 +25 +38 комфорт 1013.6 783.3 +12.7 +24.6
21 20.09 ЮЗ 2 20 км 5/4 1440 м
[Cu hum Ci sp]
+27.2 +7.0 28 +27 +34 жарко 1007.9 780.9
00 21.09 З 2 20 км 8/4 1000 м
[Cb cap Ac und]
+22.6 +11.4 49 +25 +25 комфорт 1006.1 781.2 +12.7 +27.8
03 21.09 В 1 8000 м зарница {дождь} 9/3 800 м
[Cb cap Ac As Cs]
+16.6 +14.0 85 +17 +17 1008.8 783.5 7
12 21.09 СЗ 1 18 км ясно +12.7 +11.5 92 +13 +13 1015.1 783.4 +12.5 +27.8
15 21.09 В 3 20 км 6/1 840 м
[Cu hum Cs]
+17.1 +9.7 62 +17 +22 1016.4 784.0
18 21.09 СВ 2 18 км 5/4 1110 м
[Cb calv Cs]
+23.8 +11.1 45 +25 +36 комфорт 1014.2 783.4 +12.5 +24.0
21 21.09 ЮЗ 3 18 км 6/5 1200 м
[Cu hum Ci]
+25.5 +10.5 39 +26 +31 жарко 1009.1 781.1
00 22.09 ЮЗ 2 18 км 6/4 1000 м
[Cb cap Ac As]
+22.4 +11.3 49 +25 +25 комфорт 1006.7 781.0 +12.5 +26.3
03 22.09 С 1 13 км 1/0 2000 м
[Ac trans]
+17.6 +9.7 60 +19 +19 1009.2 783.6
06 22.09 С 1 12 км 8/0
[As trans]
+15.0 +11.6 80 +16 +16 1012.2 784.8 +26.3
12 22.09 С 1 15 км 3/0
[Ac trans]
+14.1 +12.8 92 +14 +14 1015.4 784.0 +13.6 +26.3
15 22.09 С 2 12 км мгла {туман} 1/1 870 м
[Cu hum]
+18.4 +11.4 64 +19 +26 1015.8 783.9
18 22.09 СВ 3 18 км 4/4 1260 м
[Cu med, cong]
+24.9 +8.5 35 +25 +35 комфорт 1013.2 783.1 +13.5 +25.3
21 22.09 ЮЗ 2 18 км 6/5 1260 м
[Cb cap Cs]
+26.5 +8.6 32 +27 +32 жарко 1008.0 780.9
00 23.09 ЮВ 2 12 км в посл. час морось 8/4 1000 м
[Cb cap Ac As]
+21.4 +10.0 48 +23 +23 комфорт 1006.3 781.0 0.0
03 23.09 С 1 13 км 4/0 2000 м
[As trans]
+17.2 +12.6 74 +18 +18 1008.6 783.1
06 23.09 С 1 12 км 4/0 2000 м
[As trans]
+15.6 +11.9 79 +16 +16 1010.8 783.6 +13.5 +27.2
12 23.09 штиль 0 15 км ясно +12.5 +10.8 89 +12 +12 1014.3 782.6 +11.5 +27.2
15 23.09 В 2 22 км 3/1 840 м
[Cu hum Cc]
+17.1 +9.3 60 +17 +23 1016.0 783.3
18 23.09 В 3 25 км 3/3 1260 м
[Cu hum]
+23.4 +6.0 32 +24 +35 комфорт 1013.7 782.6 +11.5 +24.0
21 23.09 ЮЗ 3 20 км 6/4 1230 м
[Cb calv Ac und]
+22.6 +6.1 34 +23 +28 комфорт 1009.5 780.9
00 24.09 СЗ 1 15 км {гроза, морось} 8/4 600 м
[Cb cap Ac und]
+17.4 +9.9 61 +18 +19 1008.7 781.4 0.6
03 24.09 штиль 0 12 км слабая морось {дождь} 10/4 720 м
[Cu Sc Ac As]
+15.0 +12.7 86 +15 +15 1010.5 782.8 5
06 24.09 С 2 13 км {дождь} ясно +13.4 +12.4 94 +13 +13 1013.3 783.6 +25.1 5
12 24.09 ЮЗ 1 15 км ясно +10.3 +10.1 99 +10 +10 1016.2 782.8 +10.0 +25.1

 

Местоположение метеостанции Tlaxcala Airport (Мексика): широта 19.31 долгота -98.24 высота над уровнем моря 2282 м.

В архиве по умолчанию представлена погода в Tlaxcala Airport за последнюю неделю. Архивные данные за месяц целиком и за предыдущие месяцы, начиная с января 2011 года, Вы можете получить, выбрав интересующий диапазон дат из раскрывающегося списка и нажав кнопку "Ввод!".


*Определитесь, кто Вы:
робот инопланетянин человек

Внимание! Время в таблицах - всемирное. Для получения местного времени необходимо прибавить поправку, которая в Tlaxcala Airport равна -6 ч.

Смотрите также архив погоды в соседних городах и на ближайших метеорологических станциях:

Погода в Tlaxcala (Мексика) (2 км)
Погода в Puebla (Мексика) (30 км)
Погода в Tulancingo (Мексика) (87 км)
Погода в Institute of Geography (Мексика) (99 км)
Погода в Mexico City (Мексика) (99 км)
Погода в Pachuca (Мексика) (106 км)
Погода в Cuernavaca (Мексика) (115 км)
Погода в Zacatepec (Мексика) (119 км)
Погода в Orizaba (Мексика) (130 км)
Погода в Jalapa (Мексика) (142 км)

Пояснения к столбцам:

Ветер - указаны скорость ветра в м/с - средняя за 10 мин, порывы в срок и между сроками (в фигурных скобках) и направление, откуда дует ветер: С - северный, СВ - северо-восточный, В - восточный, ЮВ - юго-восточный, Ю - южный, ЮЗ - юго-западный, З - западный, СЗ - северо-западный.
Видимость - горизонтальная дальность видимости в метрах или километрах. При видимости от 1 до 10 км при отсутствии осадков обычно наблюдается дымка, при ухудшении видимости до 1 км и менее - туман. В сухую погоду видимость может ухудшаться дымом, пылью или мглою.
Явления - указаны атмосферные явления, наблюдавшиеся в срок или в последний час перед сроком; фигурными скобками обозначены явления, наблюдавшиеся между сроками (за 1-3 часа до срока); квадратными скобками обозначены град или гололедные отложения с указанием их диаметра в мм.
Облачность - указаны через наклонную черту общая и нижняя облачность в баллах и высота нижней границы облаков в метрах; квадратными скобками обозначены формы облаков: Ci - перистые, Cs - перисто-слоистые, Cc - перисто-кучевые, Ac - высококучевые, As - высокослоистые, Sc - слоисто-кучевые, Ns - слоисто-дождевые, Cu - кучевые, Cb - кучево-дождевые. Подробнее классификацию облаков см. в Атласе облаков (PDF).
T - Температура воздуха - температура, измеренная на высоте 2 м над землей.
Td - Температура точки росы - температура, при понижении до которой содержащийся в воздухе водяной пар достигнет насыщения.
f - Относительная влажность воздуха - влажноcть воздуха, измеренная на высоте 2 м над землей.
Te - Эффективная температура - температура, которую ощущает одетый по сезону человек в тени. Характеристика душности погоды. При расчете учитывается влияние влажности воздуха и скорости ветра на теплоощущения человека.
Tes - Эффективная температура на солнце - температура, которую ощущает человек, с поправкой на солнечный нагрев. Характеристика знойности погоды. Зависит от высоты солнца над горизонтом, облачности и скорости ветра. Ночью, в пасмурную погоду, а также при ветре 12 м/с и более поправка равна нулю.
P - Атмосферное давление - приведенное к уровню моря атмосферное давление.
Po - Атмосферное давление - измеренное на уровне метеостанции атмосферное давление.
Tmin - Минимальная температура - минимум температуры воздуха на высоте 2 м над землей.
Tmax - Максимальная температура - максимум температуры воздуха на высоте 2 м над землей.
R - Количество осадков - Количество выпавших осадков за период времени, мм. При наведении курсора мыши на число - период времени, за который выпало указанное количество осадков.
R24 - Количество осадков - Количество выпавших осадков за 24 часа, мм.
S - Снежный покров - Высота снежного покрова, см. При наведении курсора мыши на число - состояние снежного покрова и степень покрытия местности в баллах.